{"data":{"norad_id":54131,"intl_designator":"2022-138U","name":"ONEWEB-0513","alt_names":[],"object_type":"PAYLOAD","status":"ACTIVE","operator":null,"country":"UK","launch_date":"2022-10-22","launch_site_code":"SRILR","launch_vehicle":null,"mission":null,"orbit_class":"UNKNOWN","rcs_meters":null,"size_class":null,"mass_kg":null,"dimensions":null,"purposes":["comms"],"wikipedia_slug":null,"has_3d_model":false,"image_url":null,"decayed_at":null,"tle_current":{"epoch":"2026-05-25T04:46:57.148320Z","epoch_age_seconds":54037,"freshness":"FRESH","line1":"1 54131U 22138U   26145.19927255  .00000007  00000+0 -15477-4 0  9993","line2":"2 54131  87.9157 309.5026 0002121  67.0339 293.1018 13.20266933173686","mean_motion":13.20266933,"eccentricity":0.0002121,"inclination_deg":87.9157,"raan_deg":309.5026,"arg_perigee_deg":67.0339,"mean_anomaly_deg":293.1018,"bstar":-1.5477e-5,"rev_number":17368,"period_min":109.06885297263,"perigee_km":1182.0966949537,"apogee_km":1185.3044264469,"semimajor_km":7561.8375607003,"source":"CELESTRAK","updated_at":"2026-05-25T13:38:22.588178Z"}}}